Regional Weather Roundup
Issued by NWS

Home | Current Version | Previous Version | Text Only | Print | Product List | Glossary On
Versions: 1 2 3 4 5 6 7 8 9 10 11 12 13 14 15 16 17 18 19 20 21 22 23 24 25 26 27 28 29 30 31 32 33 34 35 36 37 38 39 40 41 42 43 44 45 46 47 48 49 50
000
ASUS43 KLMK 142202
RWRKY
KENTUCKY REGIONAL WEATHER ROUNDUP
NATIONAL WEATHER SERVICE LOUISVILLE KY
500 PM EST THU DEC 14 2017

NOTE "FAIR" INDICATES FEW OR NO CLOUDS BELOW 12,000 FEET
WITH NO SIGNIFICANT WEATHER AND/OR OBSTRUCTIONS TO VISIBILITY.

KYZ001>023-026-027-061>063-070>075-142300-
WESTERN AND SOUTH CENTRAL KENTUCKY

CITY           SKY/WX    TMP DP  RH WIND       PRES   REMARKS
PADUCAH        CLOUDY    35  21  56 NW5       30.09R WCI  31
HENDERSON      CLOUDY    33  21  61 W7        30.09R WCI  27
OWENSBORO      CLOUDY    34  21  59 W5        30.08R WCI  30
HOPKINSVILLE   CLOUDY    33  20  57 W8        30.06R WCI  27
BOWLING GREEN  CLOUDY    36  24  62 SW7       30.04F WCI  30
GLASGOW        NOT AVBL
$$

KYZ024-025-028>034-038-045-046-053-142300-
NORTH CENTRAL KENTUCKY

CITY           SKY/WX    TMP DP  RH WIND       PRES   REMARKS
LOUISVILLE/SDF MOCLDY    32  18  56 W6        30.05S WCI  26
LOUISVILLE/LOU CLEAR     33  15  47 CALM      30.06R
FORT KNOX      CLOUDY    32  19  58 NE6       30.02S WCI  26
$$

KYZ035>037-039>044-047>052-055>060-089>105-142300-
NORTHEAST KENTUCKY

CITY           SKY/WX    TMP DP  RH WIND       PRES   REMARKS
LEXINGTON      CLOUDY    34  15  46 CALM      30.03R
COVINGTON      MOCLDY    26  16  65 NW3       30.05R
FRANKFORT      CLOUDY    34  15  46 NW3       30.02R
$$

KYZ054-064>069-076>088-106>120-142300-
SOUTHEAST KENTUCKY

CITY           SKY/WX    TMP DP  RH WIND       PRES   REMARKS
JACKSON        CLOUDY    33  20  58 NW6       29.99R WCI  28
LONDON         CLOUDY    35  22  58 MISG      29.99R
SOMERSET       NOT AVBL
MIDDLESBORO    MOCLDY    38  26  63 N5        29.98R WCI  34
MONTICELLO     CLOUDY    35  25  66 W7        30.05R WCI  29
$$





USA.gov is the U.S. government's official web portal to all federal, state and local government web resources and services.